This is the latest recevied weather packets stored in our database for station/object IN3XSV-13. If no packets are shown the sender has not sent any weather packets the latest 10 day(s).
| Time | Temp. | Humidity | Pressure | Rain* | Wind** | Luminosity | Snow |
|---|---|---|---|---|---|---|---|
| 1777628039 | 21.11° C | 39% | 9965.9 hPa | 0 mm | - | - | - |
| 1777627739 | 19.44° C | 39% | 9965.9 hPa | 0 mm | - | - | - |
| 1777627439 | 18.89° C | 38% | 9965.9 hPa | 0 mm | - | - | - |
| 1777627139 | 18.89° C | 39% | 9966.1 hPa | 0 mm | - | - | - |
| 1777626839 | 18.89° C | 39% | 9966 hPa | 0 mm | - | - | - |
| 1777626539 | 18.89° C | 39% | 9966.1 hPa | 0 mm | - | - | - |
| 1777626239 | 19.44° C | 38% | 9966 hPa | 0 mm | - | - | - |
| 1777625939 | 18.33° C | 40% | 9965.9 hPa | 0 mm | - | - | - |
| 1777625639 | 17.22° C | 40% | 9966 hPa | 0 mm | - | - | - |
| 1777625339 | 17.78° C | 41% | 9966 hPa | 0 mm | - | - | - |
| 1777625039 | 17.22° C | 42% | 9966 hPa | 0 mm | - | - | - |
| 1777624739 | 16.67° C | 42% | 9966.1 hPa | 0 mm | - | - | - |
| 1777624439 | 16.67° C | 43% | 9966.1 hPa | 0 mm | - | - | - |
| 1777624139 | 16.67° C | 42% | 9966 hPa | 0 mm | - | - | - |
| 1777623839 | 16.67° C | 44% | 9966 hPa | 0 mm | - | - | - |
| 1777623539 | 16.11° C | 44% | 9965.9 hPa | 0 mm | - | - | - |
| 1777623239 | 16.11° C | 44% | 9966.1 hPa | 0 mm | - | - | - |
| 1777622939 | 16.11° C | 44% | 9966.1 hPa | 0 mm | - | - | - |
| 1777622639 | 15.56° C | 44% | 9966.2 hPa | 0 mm | - | - | - |
| 1777622339 | 16.11° C | 45% | 9966.2 hPa | 0 mm | - | - | - |
| 1777622039 | 15° C | 45% | 9966.2 hPa | 0 mm | - | - | - |
| 1777621739 | 15° C | 46% | 9966.2 hPa | 0 mm | - | - | - |
| 1777621439 | 15° C | 44% | 9966.2 hPa | 0 mm | - | - | - |
| 1777621139 | 15.56° C | 44% | 9966.3 hPa | 0 mm | - | - | - |
| 1777620839 | 15° C | 45% | 9966.2 hPa | 0 mm | - | - | - |
* Rain latest hour (hover to see other rain measurements)
** Current wind speed in m/s (hover to see current wind gust speed)